Regional Weather Roundup
Issued by NWS

Home | Current Version | Previous Version | Text Only | Print | Product List | Glossary On
Versions: 1 2 3 4 5 6 7 8 9 10 11 12 13 14 15 16 17 18 19 20 21 22 23 24 25 26 27 28 29 30 31 32 33 34 35 36 37 38 39 40 41 42 43 44 45 46 47 48 49 50
000
ASUS43 KMPX 312010
RWRMN
WEATHER ROUNDUP FOR MINNESOTA
NATIONAL WEATHER SERVICE TWIN CITIES/CHANHASSEN MN
300 PM CDT MON AUG 31 2015


NOTE: "FAIR" INDICATES FEW OR NO CLOUDS BELOW 12,000 FEET WITH NO
SIGNIFICANT WEATHER AND/OR OBSTRUCTIONS TO VISIBILITY. N/A MEANS
CURRENT SKY AND/OR WEATHER CONDITIONS ARE NOT AVAILABLE.

MNZ060>063-068>070-312100-
   Twin Cities Metro

CITY           SKY/WX    TMP DP  RH WIND       PRES   REMARKS
TWIN CITIES    MOSUNNY   85  69  58 S14G23    29.90F
ST PAUL        MOSUNNY   83  71  67 S14G22    29.90F
CRYSTAL        MOSUNNY   85  69  58 S17       29.89S
BLAINE         MOSUNNY   84  70  61 SW13G20   29.90S
LAKEVILLE      MOSUNNY   82  70  65 S12G22    29.92S
EDEN PRAIRIE   MOSUNNY   84  69  60 S18G26    29.90S
SOUTH ST PAUL  MOSUNNY   85  69  58 S12       29.91S
LAKE ELMO      PTSUNNY   81  72  74 S16       29.92F
$$
MNZ001>005-007-008-013>017-022>024-027-028-312100-
   Northwest Minnesota

CITY           SKY/WX    TMP DP  RH WIND       PRES   REMARKS
BEMIDJI        PTSUNNY   81  63  55 W14G22    29.79R
HALLOCK        PTSUNNY   79  63  57 W8        29.75R
ROSEAU         PTSUNNY   77  66  69 W14       29.76R
WARROAD        CLOUDY    73  70  88 S7        29.75R
THIEF RVR FALL CLOUDY   N/A N/A N/A CALM      29.78S
CROOKSTON      PTSUNNY   79  63  57 N10       29.78R
FOSSTON        CLOUDY    72  64  78 W10       29.81R
DETROIT LAKES  PTSUNNY   82  63  51 W10       29.82R
MOORHEAD       PTSUNNY   79  68  69 N12       29.80R
PARK RAPIDS    MOSUNNY   82  62  50 SW16G26   29.81R
MAHNOMEN       FAIR      79  66  64 W9G17     29.79R
$$
MNZ006-009>011-018-025>026-312100-
   North Central Minnesota

CITY           SKY/WX    TMP DP  RH WIND       PRES   REMARKS
BAUDETTE       CLOUDY    73  64  73 W13       29.76R
FLAG ISLAND    PTSUNNY   72  66  83 S5        29.72R
INTL FALLS     MOSUNNY   80  63  55 SW12G21   29.73R
WASKISH        PTSUNNY   77  66  69 W9        29.77R
BIG FORK       SUNNY     82  61  47 S17       29.77S
LONGVILLE      SUNNY     82  64  54 S14G22    29.81R
GRAND RAPIDS     N/A     81  64  57 S17G25    29.81S
CRANE LAKE     SUNNY     82  59  44 S10G18    29.76F
ORR            SUNNY     84  55  37 S13G18    29.75
COOK           SUNNY     84  61  45 S9G20     29.79S
WALKER         FAIR      81  62  53 SW8G17    29.79R
$$
MNZ012-019>021-037-312100-
   Northeast Minnesota

CITY           SKY/WX    TMP DP  RH WIND       PRES   REMARKS
DULUTH         MOSUNNY   81  66  60 S18G25    29.86S
ELY            SUNNY     82  59  44 SW10G16   29.81S
HIBBING        SUNNY     83  62  49 S8G18     29.81S
EVELETH        SUNNY     81  61  50 SW16G24   29.83S
DULUTH HARBOR  SUNNY     82  70  65 SW14      29.84R
TWO HARBORS    SUNNY     82  70  65 SW14G21   29.84S
SILVER BAY     SUNNY     79  66  65 S12G21    29.83F
GRAND MARAIS     N/A     64  60  87 SW5       29.85F
G MARAIS ARPRT SUNNY     72  61  68 S12G20    29.89F
$$
MNZ029>031-032-039>041-046>048-054>057-064-312100-
   West Central Minnesota

CITY           SKY/WX    TMP DP  RH WIND       PRES   REMARKS
FERGUS FALLS   PTSUNNY   84  64  51 W8        29.79R
WHEATON        MOSUNNY   82  63  51 W8        29.82R
MORRIS         MOSUNNY   84  66  54 S14       29.81S
ALEXANDRIA     SUNNY     82  68  62 S15G24    29.85R
ELBOW LAKE     FAIR      84  67  55 SW12G20   29.81S HAZE
WADENA         MOSUNNY   84  64  51 SW13G24   29.81S
GLENWOOD       SUNNY     82  68  61 S20G28    29.85S
APPLETON       SUNNY     88  64  45 S10       29.82R
BENSON         SUNNY     84  66  54 SW13      29.83S
ORTONVILLE     SUNNY     84  64  51 S8        29.81S
MADISON        SUNNY     84  64  51 SW14      29.82S
WILLMAR        FAIR      84  70  61 S10G17    29.86F
$$
MNZ033>034-036-042>043-049>051-058-059-312100-
   Central Minnesota

CITY           SKY/WX    TMP DP  RH WIND       PRES   REMARKS
ST CLOUD       SUNNY     82  69  64 S18G30    29.86F
SAUK CENTRE    FAIR      82  69  64 S16       29.85S
PAYNESVILLE    SUNNY     82  66  58 SE17G28   29.87S
AITKIN         SUNNY     82  70  65 S15G23    29.82S
PINE RIVER     SUNNY     82  66  57 S16G23    29.85R
BRAINERD       SUNNY     83  66  56 S16G25    29.83S
STAPLES        SUNNY     82  64  54 S15       29.82S
LONG PRAIRIE   FAIR      81  68  65 S15G21    29.85S
LITTLE FALLS   SUNNY     82  64  54 S17G23    29.85S
LITCHFIELD     SUNNY     84  72  65 S8        29.87S
BUFFALO        SUNNY     82  66  58 S8G21     29.89F
MAPLE LAKE     SUNNY     82  72  69 S9G22     29.88F
$$
MNZ037-044-045-052-053-312100-
   East Central Minnesota

CITY           SKY/WX    TMP DP  RH WIND       PRES   REMARKS
PRINCETON      SUNNY     84  70  61 S10G21    29.88F
MORA           SUNNY     79  64  61 S15G23    29.89F
CAMBRIDGE      SUNNY     84  68  58 S15G22    29.86F
RUSH CITY      MOSUNNY   80  70  70 S12G17    29.89S
MOOSE LAKE     SUNNY     81  68  65 S15G21    29.84F
HINCKLEY       FAIR      81  70  69 S16G22    29.88S
CLOQUET        SUNNY     81  64  57 S14G21    29.85F
MCGREGOR       SUNNY     81  64  57 S17G24    29.84F
$$
MNZ071>073-080-081-089-090-097-098-312100-
   Southwest Minnesota

CITY           SKY/WX    TMP DP  RH WIND       PRES   REMARKS
MONTEVIDEO     SUNNY     88  70  55 SW12      29.85S HX  92
GRANITE FALLS  SUNNY     83  69  61 S13G22    29.86S
CANBY          SUNNY     85  66  52 S14       29.85S
MARSHALL       SUNNY     84  66  54 S18G24    29.87S
REDWOOD FALLS  SUNNY     83  67  58 S20G28    29.87R
OLIVIA         SUNNY     79  64  61 S15G23    29.86F
PIPESTONE      MOSUNNY   81  68  65 S14G21    29.89S
WINDOM         SUNNY     82  66  57 S17G23    29.90F
WORTHINGTON    SUNNY     81  66  61 S17G28    29.91F
JACKSON        SUNNY     82  68  61 S20G25    29.93F
TRACY          SUNNY     82  68  63 S17G24    29.87F
SLAYTON        SUNNY     81  67  63 S17       29.91S
$$
MNZ065>067-074>077-082>085-091>093-312100-
   South Central Minnesota

CITY           SKY/WX    TMP DP  RH WIND       PRES   REMARKS
MANKATO        MOSUNNY   81  68  65 SW18      29.92S
NEW ULM        SUNNY     82  66  57 S15G23    29.88F
ST JAMES       MOSUNNY   82  70  65 S17G23    29.91F
FAIRMONT       PTSUNNY   82  66  57 S16G22    29.93S
GLENCOE        SUNNY     83  71  66 S13G23    29.89F
FARIBAULT      MOSUNNY   82  72  69 S9        29.94S
OWATONNA       SUNNY     82  70  65 S13       29.94F
WASECA         MOSUNNY   82  70  65 S13G20    29.95S
ALBERT LEA     SUNNY     82  72  69 S8        29.95F
$$
MNZ078>079-086>088-094>096-312100-
   Southeast Minnesota

CITY           SKY/WX    TMP DP  RH WIND       PRES   REMARKS
ROCHESTER      PTSUNNY   81  71  71 S15       29.98S
RED WING       PTSUNNY   86  70  58 SW10G17   29.92F HX  90
STANTON        PTSUNNY   84  70  62 S12G21    29.92F
DODGE CENTER   MOSUNNY   81  70  69 SW13G21   29.97S
WINONA         MOSUNNY   82  68  61 S8        29.96S
AUSTIN         MOSUNNY   82  72  69 S14       29.97R
PRESTON        PTSUNNY   81  69  67 S13       29.99F
$$
ABBREVIATIONS USED IN REMARKS
   TC - TEMPERATURES IN CELSIUS
  WCI - WIND CHILL INDEX
   HX - HEAT INDEX
  VSB - VISIBILITY
$$


USA.gov is the U.S. government's official web portal to all federal, state and local government web resources and services.